This is the latest recevied weather packets stored in our database for station/object F4FSZ-11. If no packets are shown the sender has not sent any weather packets the latest 10 day(s).
| Time | Temp. | Humidity | Pressure | Rain* | Wind** | Luminosity | Snow |
|---|---|---|---|---|---|---|---|
| 1777531697 | 10.56° C | 52% | 1014.4 hPa | - | - | - | - |
| 1777530797 | 9.44° C | 56% | 1014.2 hPa | - | - | - | - |
| 1777529897 | 8.33° C | 62% | 1014.3 hPa | - | - | - | - |
| 1777528997 | 7.78° C | 62% | 1014.3 hPa | - | - | - | - |
| 1777528097 | 7.78° C | 61% | 1014.1 hPa | - | - | - | - |
| 1777527197 | 7.78° C | 56% | 1014.1 hPa | - | - | - | - |
| 1777526297 | 6.67° C | 61% | 1014.1 hPa | - | - | - | - |
| 1777525397 | 5.56° C | 65% | 1013.9 hPa | - | - | - | - |
| 1777524497 | 4.44° C | 78% | 1014 hPa | - | - | - | - |
| 1777523597 | 3.89° C | 82% | 1014 hPa | - | - | - | - |
| 1777522696 | 3.89° C | 77% | 1014 hPa | - | - | - | - |
| 1777521796 | 4.44° C | 72% | 1013.8 hPa | - | - | - | - |
| 1777520896 | 5.56° C | 66% | 1013.7 hPa | - | - | - | - |
| 1777519996 | 5° C | 69% | 1013.9 hPa | - | - | - | - |
| 1777519096 | 4.44° C | 73% | 1013.8 hPa | - | - | - | - |
| 1777518196 | 4.44° C | 76% | 1013.8 hPa | - | - | - | - |
| 1777517296 | 4.44° C | 78% | 1013.8 hPa | - | - | - | - |
| 1777516396 | 5° C | 76% | 1013.9 hPa | - | - | - | - |
| 1777515496 | 5° C | 75% | 1013.8 hPa | - | - | - | - |
| 1777514596 | 5° C | 78% | 1013.8 hPa | - | - | - | - |
| 1777513696 | 5° C | 78% | 1013.9 hPa | - | - | - | - |
| 1777512796 | 5.56° C | 76% | 1013.7 hPa | - | - | - | - |
| 1777511896 | 5.56° C | 77% | 1013.8 hPa | - | - | - | - |
| 1777510996 | 6.11° C | 71% | 1013.7 hPa | - | - | - | - |
| 1777510096 | 6.11° C | 70% | 1013.7 hPa | - | - | - | - |
* Rain since midnight (hover to see other rain measurements)
** Current wind speed in m/s (hover to see current wind gust speed)